Location: Ponte Samoggia
(44.5667°N, 11.1333°E)
Time: 22:58:20
(UTC+00:00)

ATLAS 5 CENTAUR R/B - Pass Details

Date: 26 May 2022
Orbit: 341 x 13895 km, 60.8° (Epoch: 27 June)

Event Time Altitude Azimuth Distance (km) Brightness Sun altitude
Rises 00:06:35 0° 318° (NW) 7,957 8.2 -23.2°
Reaches altitude 10° 00:13:48 10° 316° (NW) 5,116 7.1 -22.9°
Maximum altitude 00:23:55 55° 243° (WSW) 1,039 2.9 -22.3°
Enters shadow 00:24:31 51° 214° (SW) 999 2.7 -22.3°
